Hourly Data Report for January 04, 2022

BANCROFT AUTO
ONTARIO
Current Station Operator: ECCC - MSC

45°04'17.000" N
77°52'44.000" W
330.70 m
616I001
71294
WRK

Download Data

Hourly Data (January 2022)
Hourly Data Report for January 4, 2022
TIME
LST
Temp Definition
°C
Dew Point Definition
°C
Rel Hum Definition
%
Precip. Amount Definition
mm

Wind Dir Definition
10's deg

Wind Spd Definition
km/h
Visibility Definition
km
Stn Press Definition
kPa
Hmdx Definition


Wind Chill Definition


Weather Definition


00:00 -9.6 -14.2 69 0.0 19 7   98.24   -14 LegendNANA
01:00 -9.1 -12.5 76 0.0 19 8   98.15   -13 LegendNANA
02:00 -8.6 -11.9 77 0.0 19 7   98.17   -12 LegendNANA
03:00 -8.3 -11.5 77 0.0 20 7   98.17   -12 LegendNANA
04:00 -7.8 -11.0 78 0.0 19 8   98.07   -12 LegendNANA
05:00 -7.3 -10.5 78 0.0 19 4   98.03   -9 LegendNANA
06:00 -6.9 -10.1 78 0.0 19 6   98.03   -10 LegendNANA
07:00 -6.7 -9.7 79 0.0 19 5   98.04   -9 LegendNANA
08:00 -6.4 -9.1 81 0.0 19 8   98.01   -10 LegendNANA
09:00 -5.7 -8.5 81 0.0 19 8   98.07   -9 LegendNANA
10:00 -5.0 -7.9 80 0.0 20 9   98.07   -9 LegendNANA
11:00 -4.3 -7.4 79 0.0 21 7   98.02   -7 LegendNANA
12:00 -3.7 -6.9 78 0.0 20 9   97.96   -7 LegendNANA
13:00 -3.4 -6.5 79 0.0 21 6   97.88   -6 LegendNANA
14:00 -3.2 -6.3 79 0.0 19 8   97.83   -6 LegendNANA
15:00 -3.0 -6.3 78 0.0 20 7   97.81   -6 LegendNANA
16:00 -3.2 -6.5 78 0.0 18 6   97.79   -6 LegendNANA
17:00 -3.7 -6.8 79 0.0 18 3   97.75   -5 LegendNANA
18:00 -3.9 -7.0 79 0.0 17 4   97.69   -6 LegendNANA
19:00 -3.4 -6.7 78 0.0 17 2   97.69   -4 LegendNANA
20:00 -2.1 -4.4 85 0.0 17 7   97.61   -5 LegendNANA
21:00 -1.7 -3.8 85 0.0 18 6   97.53   -4 LegendNANA
22:00 -2.1 -4.8 82 0.0 17 6   97.40   -4 LegendNANA
23:00 -2.7 -5.3 82 0.0 17 2   97.33   -3 LegendNANA

Notes on Data Quality.

Legend

  • E = Estimated
  • M = Missing
  • NA = Not Available*
  • [empty] = Indicates an unobserved value
Date modified: